Location: *
(51.4660°N, 0.3360°W)
Time: 19:25:14
(UTC+00:00)

Cosmos 2341 Rocket - Pass Details

Date: 19 September 2019
Orbit: 967 x 1005 km, 82.9° (Epoch: 16 October)

Event Time Altitude Azimuth Distance (km) Brightness Sun altitude
Rises 18:48:46 0° 352° (N) 3,699 7.3 -7.2°
Reaches altitude 10° 18:51:25 10° 358° (N) 2,742 6.5 -7.6°
Maximum altitude 18:57:28 48° 72° (ENE) 1,262 4.3 -8.5°
Drops below altitude 10° 19:03:26 10° 146° (SE) 2,707 5.9 -9.5°
Sets 19:06:01 0° 152° (SSE) 3,648 6.6 -9.8°
